2020-11-23 00:07:53 r, 19.76m,0000000001Hz,0000434732c,0000000.943s,-000.4C,00002191
2020-11-23 00:17:52 r, 19.90m,0000000001Hz,0000497368c,0000001.079s,-000.4C,00002191
2020-11-23 00:27:53 r, 19.86m,0000000001Hz,0000477962c,0000001.037s,-000.7C,00002191
2020-11-23 00:37:53 r, 19.96m,0000000001Hz,0000527959c,0000001.146s,-000.7C,00002191
2020-11-23 00:47:52 r, 19.90m,0000000001Hz,0000496199c,0000001.077s,-000.7C,00002191
2020-11-23 00:57:53 r, 19.84m,0000000001Hz,0000470148c,0000001.020s,-000.7C,00002191
2020-11-23 01:07:53 r, 19.78m,0000000001Hz,0000446272c,0000000.968s,-000.7C,00002191
2020-11-23 01:17:52 r, 19.83m,0000000001Hz,0000465541c,0000001.010s,-000.7C,00002191
2020-11-23 01:27:53 r, 20.05m,0000000001Hz,0000571907c,0000001.241s,-000.4C,00002191
2020-11-23 01:37:54 r, 20.08m,0000000000Hz,0000587313c,0000001.275s,-000.7C,00002191
2020-11-23 01:47:52 r, 19.98m,0000000001Hz,0000536487c,0000001.164s,-000.7C,00002191
2020-11-23 01:57:54 r, 19.77m,0000000001Hz,0000441532c,0000000.958s,-001.0C,00002191
2020-11-23 02:07:53 r, 19.60m,0000000001Hz,0000377081c,0000000.818s,-001.0C,00002191
2020-11-23 02:17:52 r, 19.47m,0000000002Hz,0000335577c,0000000.728s,-001.0C,00002191
2020-11-23 02:27:54 r, 19.74m,0000000001Hz,0000429173c,0000000.931s,-001.0C,00002191
2020-11-23 02:37:53 r, 20.03m,0000000001Hz,0000564377c,0000001.225s,-001.0C,00002191
2020-11-23 02:47:52 r, 20.03m,0000000001Hz,0000562909c,0000001.222s,-001.0C,00002191
2020-11-23 02:57:52 r, 20.03m,0000000000Hz,0000557684c,0000001.210s,-001.0C,00002191
2020-11-23 03:07:53 r, 19.98m,0000000001Hz,0000533948c,0000001.159s,-001.3C,00002191
2020-11-23 03:17:52 r, 20.00m,0000000001Hz,0000542617c,0000001.178s,-001.3C,00002191
2020-11-23 03:27:52 r, 19.99m,0000000001Hz,0000539788c,0000001.171s,-001.7C,00002191
2020-11-23 03:37:54 r, 20.05m,0000000001Hz,0000570559c,0000001.238s,-001.7C,00002191
2020-11-23 03:47:52 r, 20.07m,0000000000Hz,0000582705c,0000001.265s,-001.7C,00002191
2020-11-23 03:57:52 r, 20.09m,0000000001Hz,0000591161c,0000001.283s,-001.7C,00002191
2020-11-23 04:07:54 r, 20.07m,0000000000Hz,0000584636c,0000001.269s,-001.7C,00002191
2020-11-23 04:17:52 r, 20.08m,0000000000Hz,0000586436c,0000001.273s,-001.7C,00002191
2020-11-23 04:27:52 r, 20.07m,0000000001Hz,0000584376c,0000001.268s,-001.7C,00002191
2020-11-23 04:37:53 r, 20.07m,0000000001Hz,0000581740c,0000001.262s,-001.7C,00002191
2020-11-23 04:47:52 r, 20.06m,0000000001Hz,0000573934c,0000001.246s,-001.3C,00002191
2020-11-23 04:57:52 r, 20.07m,0000000000Hz,0000581857c,0000001.263s,-001.3C,00002191
2020-11-23 05:07:53 r, 20.07m,0000000001Hz,0000581694c,0000001.262s,-001.3C,00002191
2020-11-23 05:17:53 r, 20.07m,0000000001Hz,0000579017c,0000001.257s,-001.7C,00002191
2020-11-23 05:27:52 r, 20.06m,0000000001Hz,0000576738c,0000001.252s,-001.7C,00002191
2020-11-23 05:37:54 r, 20.06m,0000000001Hz,0000576849c,0000001.252s,-001.7C,00002191
2020-11-23 05:47:53 r, 20.05m,0000000001Hz,0000571456c,0000001.240s,-001.7C,00002191
2020-11-23 05:57:52 r, 20.06m,0000000000Hz,0000574685c,0000001.247s,-001.7C,00002191
2020-11-23 06:07:54 r, 20.01m,0000000001Hz,0000552269c,0000001.199s,-001.7C,00002191
2020-11-23 06:17:53 r, 19.94m,0000000001Hz,0000516056c,0000001.120s,-001.7C,00002191
2020-11-23 06:27:52 r, 19.75m,0000000001Hz,0000431974c,0000000.937s,-001.3C,00002191
2020-11-23 06:37:53 r, 19.20m,0000000002Hz,0000259340c,0000000.563s,-001.3C,00002191
2020-11-23 06:47:53 r, 18.14m,0000000004Hz,0000098438c,0000000.214s,-001.3C,00002191
2020-11-23 06:57:52 r, 16.70m,0000000017Hz,0000026344c,0000000.057s,-001.3C,00002191
2020-11-23 07:07:53 r, 14.97m,0000000086Hz,0000005340c,0000000.012s,-001.3C,00002191
2020-11-23 07:17:53 r, 13.08m,0000000497Hz,0000000000c,0000000.000s,-001.3C,00002191
2020-11-23 07:27:52 r, 11.16m,0000002900Hz,0000000000c,0000000.000s,-001.7C,00002191
2020-11-23 07:37:53 r, 09.46m,0000013844Hz,0000000000c,0000000.000s,-001.7C,00002191
2020-11-23 07:47:54 r, 08.16m,0000046032Hz,0000000000c,0000000.000s,-001.7C,00002191
2020-11-23 07:57:52 r, 07.32m,0000100165Hz,0000000000c,0000000.000s,-001.7C,00002191
2020-11-23 08:07:54 r, 06.61m,0000191711Hz,0000000000c,0000000.000s,-001.3C,00002191
2020-11-23 08:17:53 r, 06.14m,0000297928Hz,0000000000c,0000000.000s,-001.3C,00002191
2020-11-23 08:27:52 r, 00.00m,0000438092Hz,0000000000c,0000000.000s,-000.7C,00002191
2020-11-23 08:37:54 r, 00.00m,0000599307Hz,0000000000c,0000000.000s,-000.4C,00002191
2020-11-23 08:47:53 r, 00.00m,0000599086Hz,0000000000c,0000000.000s, 000.3C,00002191
2020-11-23 08:57:52 r, 00.00m,0000599040Hz,0000000000c,0000000.000s, 000.9C,00002191
2020-11-23 09:07:53 r, 00.00m,0000599001Hz,0000000000c,0000000.000s, 001.9C,00002191
2020-11-23 09:17:53 r, 00.00m,0000598981Hz,0000000000c,0000000.000s, 002.5C,00002191
2020-11-23 09:27:52 r, 00.00m,0000598925Hz,0000000000c,0000000.000s, 003.2C,00002191
2020-11-23 09:37:53 r, 00.00m,0000598890Hz,0000000000c,0000000.000s, 003.8C,00002191
2020-11-23 09:47:53 r, 00.00m,0000598888Hz,0000000000c,0000000.000s, 004.5C,00002191
2020-11-23 09:57:52 r, 00.00m,0000598823Hz,0000000000c,0000000.000s, 004.5C,00002191
2020-11-23 10:07:52 r, 00.00m,0000598748Hz,0000000000c,0000000.000s, 005.1C,00002191
2020-11-23 10:17:54 r, 00.00m,0000598674Hz,0000000000c,0000000.000s, 005.4C,00002191
2020-11-23 10:27:52 r, 00.00m,0000598614Hz,0000000000c,0000000.000s, 006.4C,00002191
2020-11-23 10:37:54 r, 00.00m,0000598479Hz,0000000000c,0000000.000s, 007.7C,00002191
2020-11-23 10:47:52 r, 00.00m,0000598534Hz,0000000000c,0000000.000s, 007.7C,00002191
2020-11-23 10:57:52 r, 00.00m,0000598418Hz,0000000000c,0000000.000s, 008.0C,00002191
2020-11-23 11:07:54 r, 00.00m,0000598573Hz,0000000000c,0000000.000s, 008.3C,00002191
2020-11-23 11:17:52 r, 00.00m,0000598397Hz,0000000000c,0000000.000s, 008.7C,00002191
2020-11-23 11:27:52 r, 00.00m,0000598328Hz,0000000000c,0000000.000s, 009.3C,00002191
2020-11-23 11:37:52 r, 00.00m,0000598260Hz,0000000000c,0000000.000s, 009.9C,00002191
2020-11-23 11:47:53 r, 00.00m,0000598366Hz,0000000000c,0000000.000s, 009.6C,00002191
2020-11-23 11:57:52 r, 00.00m,0000598210Hz,0000000000c,0000000.000s, 009.9C,00002191
2020-11-23 12:07:53 r, 00.00m,0000598288Hz,0000000000c,0000000.000s, 009.3C,00002191
2020-11-23 12:17:53 r, 00.00m,0000598410Hz,0000000000c,0000000.000s, 008.0C,00002191
2020-11-23 12:27:52 r, 00.00m,0000598570Hz,0000000000c,0000000.000s, 007.7C,00002191
2020-11-23 12:37:54 r, 00.00m,0000598556Hz,0000000000c,0000000.000s, 007.7C,00002191
2020-11-23 12:47:52 r, 00.00m,0000598513Hz,0000000000c,0000000.000s, 008.0C,00002191
2020-11-23 12:57:52 r, 00.00m,0000598429Hz,0000000000c,0000000.000s, 008.3C,00002191
2020-11-23 13:07:54 r, 00.00m,0000598423Hz,0000000000c,0000000.000s, 008.0C,00002191
2020-11-23 13:17:52 r, 00.00m,0000598416Hz,0000000000c,0000000.000s, 008.3C,00002191
2020-11-23 13:27:52 r, 00.00m,0000598480Hz,0000000000c,0000000.000s, 008.3C,00002191
2020-11-23 13:37:52 r, 00.00m,0000598460Hz,0000000000c,0000000.000s, 008.0C,00002191
2020-11-23 13:47:53 r, 00.00m,0000598511Hz,0000000000c,0000000.000s, 008.0C,00002191
2020-11-23 13:57:52 r, 00.00m,0000598507Hz,0000000000c,0000000.000s, 008.0C,00002191
2020-11-23 14:07:53 r, 00.00m,0000598550Hz,0000000000c,0000000.000s, 008.0C,00002191
2020-11-23 14:17:52 r, 00.00m,0000598462Hz,0000000000c,0000000.000s, 008.3C,00002191
2020-11-23 14:27:52 r, 00.00m,0000598451Hz,0000000000c,0000000.000s, 008.3C,00002191
2020-11-23 14:37:53 r, 00.00m,0000598470Hz,0000000000c,0000000.000s, 008.7C,00002191
2020-11-23 14:47:54 r, 00.00m,0000598366Hz,0000000000c,0000000.000s, 008.7C,00002191
2020-11-23 14:57:52 r, 00.00m,0000598430Hz,0000000000c,0000000.000s, 009.0C,00002191
2020-11-23 15:07:54 r, 00.00m,0000598431Hz,0000000000c,0000000.000s, 009.0C,00002191
2020-11-23 15:17:52 r, 00.00m,0000598310Hz,0000000000c,0000000.000s, 009.3C,00002191
2020-11-23 15:27:52 r, 00.00m,0000598232Hz,0000000000c,0000000.000s, 009.9C,00002191
2020-11-23 15:37:54 r, 00.00m,0000598323Hz,0000000000c,0000000.000s, 009.6C,00002191
2020-11-23 15:47:52 r, 00.00m,0000545760Hz,0000000000c,0000000.000s, 009.6C,00002191
2020-11-23 15:57:52 r, 00.00m,0000431935Hz,0000000000c,0000000.000s, 009.0C,00002191
2020-11-23 16:07:52 r, 06.13m,0000300571Hz,0000000000c,0000000.000s, 008.7C,00002191
2020-11-23 16:17:53 r, 06.64m,0000185872Hz,0000000000c,0000000.000s, 008.0C,00002191
2020-11-23 16:27:52 r, 07.26m,0000105295Hz,0000000000c,0000000.000s, 007.7C,00002191
2020-11-23 16:37:53 r, 08.06m,0000050654Hz,0000000000c,0000000.000s, 007.4C,00002191
2020-11-23 16:47:52 r, 09.21m,0000017578Hz,0000000000c,0000000.000s, 007.0C,00002191
2020-11-23 16:57:52 r, 10.78m,0000004137Hz,0000000000c,0000000.000s, 006.7C,00002191
2020-11-23 17:07:52 r, 12.61m,0000000767Hz,0000000000c,0000000.000s, 006.7C,00002191
2020-11-23 17:17:54 r, 14.50m,0000000134Hz,0000000000c,0000000.000s, 006.4C,00002191
2020-11-23 17:27:52 r, 16.40m,0000000023Hz,0000019962c,0000000.043s, 006.7C,00002191
2020-11-23 17:37:54 r, 17.70m,0000000007Hz,0000066423c,0000000.144s, 006.7C,00002191
2020-11-23 17:47:52 r, 18.40m,0000000004Hz,0000125685c,0000000.273s, 006.7C,00002191
2020-11-23 17:57:52 r, 18.63m,0000000003Hz,0000156041c,0000000.339s, 006.7C,00002191
2020-11-23 18:07:54 r, 18.68m,0000000003Hz,0000163037c,0000000.354s, 006.4C,00002191
2020-11-23 18:17:52 r, 18.80m,0000000003Hz,0000181468c,0000000.394s, 006.4C,00002191
2020-11-23 18:27:52 r, 18.80m,0000000003Hz,0000180419c,0000000.392s, 006.4C,00002191
2020-11-23 18:37:52 r, 18.82m,0000000003Hz,0000184330c,0000000.400s, 006.4C,00002191
2020-11-23 18:47:53 r, 18.77m,0000000003Hz,0000176755c,0000000.384s, 006.4C,00002191
2020-11-23 18:57:52 r, 18.78m,0000000002Hz,0000178076c,0000000.386s, 006.4C,00002191
2020-11-23 19:07:53 r, 18.68m,0000000003Hz,0000162290c,0000000.352s, 006.4C,00002191
2020-11-23 19:17:52 r, 18.57m,0000000003Hz,0000147320c,0000000.320s, 006.4C,00002191
2020-11-23 19:27:52 r, 18.53m,0000000003Hz,0000143355c,0000000.311s, 006.4C,00002191
2020-11-23 19:37:52 r, 18.58m,0000000003Hz,0000148121c,0000000.321s, 006.4C,00002191
2020-11-23 19:47:54 r, 18.62m,0000000003Hz,0000153815c,0000000.334s, 006.7C,00002191
2020-11-23 19:57:52 r, 18.57m,0000000003Hz,0000147388c,0000000.320s, 006.7C,00002191
2020-11-23 20:07:52 r, 18.56m,0000000003Hz,0000145809c,0000000.316s, 007.0C,00002191
2020-11-23 20:17:52 r, 18.42m,0000000004Hz,0000128487c,0000000.279s, 007.0C,00002191
2020-11-23 20:27:52 r, 18.46m,0000000004Hz,0000132313c,0000000.287s, 007.4C,00002191
2020-11-23 20:37:52 r, 18.53m,0000000004Hz,0000143062c,0000000.310s, 007.7C,00002191
2020-11-23 20:47:53 r, 18.52m,0000000003Hz,0000140547c,0000000.305s, 007.7C,00002191
2020-11-23 20:57:52 r, 18.34m,0000000004Hz,0000118998c,0000000.258s, 008.0C,00002191
2020-11-23 21:07:52 r, 18.18m,0000000004Hz,0000103071c,0000000.224s, 008.0C,00002191
2020-11-23 21:17:54 r, 18.31m,0000000004Hz,0000115137c,0000000.250s, 008.0C,00002191
2020-11-23 21:27:52 r, 18.35m,0000000003Hz,0000120203c,0000000.261s, 008.3C,00002191
2020-11-23 21:37:52 r, 18.37m,0000000004Hz,0000122646c,0000000.266s, 008.3C,00002191
2020-11-23 21:47:54 r, 18.21m,0000000004Hz,0000105971c,0000000.230s, 008.7C,00002191
2020-11-23 21:57:52 r, 18.13m,0000000005Hz,0000097530c,0000000.212s, 008.7C,00002191
2020-11-23 22:07:52 r, 17.97m,0000000005Hz,0000084901c,0000000.184s, 008.7C,00002191
2020-11-23 22:17:52 r, 17.91m,0000000006Hz,0000079400c,0000000.172s, 009.0C,00002191
2020-11-23 22:27:53 r, 17.83m,0000000006Hz,0000073738c,0000000.160s, 009.3C,00002191
2020-11-23 22:37:52 r, 17.85m,0000000006Hz,0000075062c,0000000.163s, 009.3C,00002191
2020-11-23 22:47:53 r, 17.79m,0000000007Hz,0000070960c,0000000.154s, 009.6C,00002191
2020-11-23 22:57:52 r, 17.72m,0000000007Hz,0000066705c,0000000.145s, 009.6C,00002191
2020-11-23 23:07:52 r, 17.71m,0000000007Hz,0000066352c,0000000.144s, 009.6C,00002191
2020-11-23 23:17:52 r, 17.77m,0000000006Hz,0000069958c,0000000.152s, 009.9C,00002191
2020-11-23 23:27:54 r, 17.88m,0000000006Hz,0000076954c,0000000.167s, 010.3C,00002191
2020-11-23 23:37:52 r, 17.93m,0000000006Hz,0000081407c,0000000.177s, 010.3C,00002191
2020-11-23 23:47:54 r, 18.00m,0000000005Hz,0000086019c,0000000.187s, 010.6C,00002191
2020-11-23 23:57:52 r, 18.03m,0000000005Hz,0000088944c,0000000.193s, 010.6C,00002191
